When you browse on this site, cookies collect data to enhance your experience and personalize the content and advertising you see.
Visit our Privacy Policy to learn more. By continuing to use the site, you agree to this use of cookies and data.
  • în România
  • Lista ţărilor
  • Pe 7 zile
  • Temperatura apei
  • Meteo pe hartă
  • Widget-uri
  • user-avatar
    Intrare

    Meteo pe oră la Nadżaf

    Astăzi, 25 August, Duminică

    Timp Temperatura Precipitaţii Vânt Presiune Umiditate
    00:00 +37°C° 0 mm 2 m/s 743 mmHg 14%
    01:00 +37°C° 0 mm 2 m/s 743 mmHg 15%
    02:00 +36°C° 0 mm 2 m/s 743 mmHg 15%
    03:00 +36°C° 0 mm 2 m/s 742 mmHg 16%
    04:00 +35°C° 0 mm 2 m/s 743 mmHg 17%
    05:00 +35°C° 0 mm 2 m/s 743 mmHg 17%
    06:00 +33°C° 0 mm 1 m/s 743 mmHg 18%
    07:00 +36°C° 0 mm 1 m/s 743 mmHg 16%
    08:00 +40°C° 0 mm 1 m/s 744 mmHg 14%
    09:00 +43°C° 0 mm 1 m/s 744 mmHg 11%
    10:00 +46°C° 0 mm 2 m/s 744 mmHg 10%
    11:00 +47°C° 0 mm 2 m/s 743 mmHg 9%
    12:00 +49°C° 0 mm 2 m/s 743 mmHg 8%
    13:00 +50°C° 0 mm 2 m/s 742 mmHg 8%
    14:00 +50°C° 0 mm 2 m/s 742 mmHg 7%
    15:00 +51°C° 0 mm 2 m/s 741 mmHg 7%
    16:00 +49°C° 0 mm 2 m/s 741 mmHg 8%
    17:00 +48°C° 0 mm 2 m/s 741 mmHg 8%
    18:00 +45°C° 0 mm 1 m/s 741 mmHg 9%
    19:00 +43°C° 0 mm 2 m/s 741 mmHg 10%
    20:00 +41°C° 0 mm 2 m/s 741 mmHg 12%
    21:00 +39°C° 0 mm 2 m/s 742 mmHg 13%
    22:00 +39°C° 0 mm 2 m/s 742 mmHg 13%
    23:00 +39°C° 0 mm 2 m/s 742 mmHg 13%

    Mâine, 26 August, Luni

    Timp Temperatura Precipitaţii Vânt Presiune Umiditate
    00:00 +38°C° 0 mm 2 m/s 742 mmHg 14%
    01:00 +38°C° 0 mm 2 m/s 742 mmHg 14%
    02:00 +38°C° 0 mm 3 m/s 742 mmHg 14%
    03:00 +38°C° 0 mm 3 m/s 741 mmHg 14%
    04:00 +37°C° 0 mm 3 m/s 742 mmHg 15%
    05:00 +37°C° 0 mm 3 m/s 742 mmHg 16%
    06:00 +36°C° 0 mm 3 m/s 742 mmHg 16%
    07:00 +40°C° 0 mm 4 m/s 743 mmHg 14%
    08:00 +42°C° 0 mm 4 m/s 743 mmHg 13%
    09:00 +45°C° 0 mm 4 m/s 743 mmHg 11%
    10:00 +48°C° 0 mm 4 m/s 743 mmHg 9%
    11:00 +50°C° 0 mm 4 m/s 743 mmHg 8%
    12:00 +52°C° 0 mm 4 m/s 743 mmHg 6%
    13:00 +52°C° 0 mm 4 m/s 742 mmHg 6%
    14:00 +53°C° 0 mm 4 m/s 742 mmHg 6%
    15:00 +53°C° 0 mm 4 m/s 741 mmHg 6%
    16:00 +53°C° 0 mm 5 m/s 741 mmHg 6%
    17:00 +52°C° 0 mm 5 m/s 741 mmHg 7%
    18:00 +50°C° 0 mm 5 m/s 741 mmHg 8%
    19:00 +48°C° 0 mm 5 m/s 741 mmHg 9%
    20:00 +46°C° 0 mm 5 m/s 742 mmHg 10%
    21:00 +44°C° 0 mm 4 m/s 742 mmHg 11%
    22:00 +43°C° 0 mm 4 m/s 742 mmHg 11%
    23:00 +42°C° 0 mm 4 m/s 742 mmHg 12%

    Poimâine, 27 August, Marţi

    Timp Temperatura Precipitaţii Vânt Presiune Umiditate
    00:00 +41°C° 0 mm 4 m/s 742 mmHg 13%
    01:00 +40°C° 0 mm 4 m/s 742 mmHg 14%
    02:00 +40°C° 0 mm 4 m/s 742 mmHg 14%
    03:00 +38°C° 0 mm 4 m/s 742 mmHg 15%
    04:00 +37°C° 0 mm 4 m/s 742 mmHg 16%
    05:00 +37°C° 0 mm 3 m/s 742 mmHg 17%
    06:00 +36°C° 0 mm 3 m/s 742 mmHg 18%
    07:00 +38°C° 0 mm 4 m/s 743 mmHg 16%
    08:00 +42°C° 0 mm 4 m/s 743 mmHg 14%
    09:00 +44°C° 0 mm 4 m/s 743 mmHg 12%
    10:00 +48°C° 0 mm 4 m/s 743 mmHg 11%
    11:00 +50°C° 0 mm 3 m/s 743 mmHg 9%
    12:00 +52°C° 0 mm 3 m/s 743 mmHg 7%
    13:00 +52°C° 0 mm 3 m/s 742 mmHg 7%
    14:00 +53°C° 0 mm 4 m/s 742 mmHg 6%
    15:00 +53°C° 0 mm 4 m/s 741 mmHg 6%
    16:00 +53°C° 0 mm 5 m/s 741 mmHg 7%
    17:00 +52°C° 0 mm 5 m/s 741 mmHg 7%
    18:00 +50°C° 0 mm 5 m/s 741 mmHg 8%
    19:00 +48°C° 0 mm 5 m/s 741 mmHg 9%
    20:00 +45°C° 0 mm 4 m/s 741 mmHg 10%
    21:00 +43°C° 0 mm 4 m/s 742 mmHg 11%
    22:00 +43°C° 0 mm 4 m/s 742 mmHg 12%
    23:00 +42°C° 0 mm 4 m/s 742 mmHg 12%

    28 August, Miercuri

    Timp Temperatura Precipitaţii Vânt Presiune Umiditate
    00:00 +40°C° 0 mm 3 m/s 741 mmHg 13%
    01:00 +40°C° 0 mm 4 m/s 741 mmHg 15%
    02:00 +39°C° 0 mm 5 m/s 741 mmHg 16%
    03:00 +37°C° 0 mm 5 m/s 741 mmHg 18%
    04:00 +37°C° 0 mm 5 m/s 741 mmHg 19%
    05:00 +36°C° 0 mm 4 m/s 742 mmHg 21%
    06:00 +36°C° 0 mm 4 m/s 742 mmHg 22%
    07:00 +40°C° 0 mm 4 m/s 742 mmHg 18%
    08:00 +43°C° 0 mm 5 m/s 742 mmHg 15%
    09:00 +47°C° 0 mm 6 m/s 742 mmHg 11%
    10:00 +49°C° 0 mm 5 m/s 742 mmHg 9%
    11:00 +51°C° 0 mm 4 m/s 742 mmHg 8%
    12:00 +53°C° 0 mm 3 m/s 742 mmHg 7%
    13:00 +53°C° 0 mm 3 m/s 741 mmHg 7%
    14:00 +53°C° 0 mm 3 m/s 741 mmHg 6%
    15:00 +55°C° 0 mm 4 m/s 740 mmHg 6%
    16:00 +52°C° 0 mm 4 m/s 740 mmHg 6%
    17:00 +51°C° 0 mm 4 m/s 740 mmHg 7%
    18:00 +50°C° 0 mm 5 m/s 740 mmHg 7%
    19:00 +48°C° 0 mm 4 m/s 741 mmHg 8%
    20:00 +44°C° 0 mm 3 m/s 741 mmHg 10%
    21:00 +42°C° 0 mm 3 m/s 741 mmHg 11%
    22:00 +40°C° 0 mm 2 m/s 741 mmHg 12%
    23:00 +38°C° 0 mm 2 m/s 741 mmHg 14%

    29 August, Joi

    Timp Temperatura Precipitaţii Vânt Presiune Umiditate
    00:00 +36°C° 0 mm 1 m/s 741 mmHg 15%
    01:00 +35°C° 0 mm 1 m/s 741 mmHg 15%
    02:00 +35°C° 0 mm 1 m/s 741 mmHg 16%
    03:00 +34°C° 0 mm 1 m/s 741 mmHg 17%
    04:00 +35°C° 0 mm 2 m/s 742 mmHg 17%
    05:00 +35°C° 0 mm 2 m/s 742 mmHg 17%
    06:00 +35°C° 0 mm 2 m/s 742 mmHg 16%
    07:00 +38°C° 0 mm 2 m/s 742 mmHg 14%
    08:00 +41°C° 0 mm 2 m/s 742 mmHg 12%
    09:00 +45°C° 0 mm 2 m/s 743 mmHg 10%
    10:00 +47°C° 0 mm 3 m/s 742 mmHg 8%
    11:00 +50°C° 0 mm 3 m/s 742 mmHg 7%
    12:00 +53°C° 0 mm 3 m/s 742 mmHg 6%
    13:00 +53°C° 0 mm 3 m/s 741 mmHg 6%
    14:00 +53°C° 0 mm 3 m/s 741 mmHg 6%
    15:00 +54°C° 0 mm 3 m/s 740 mmHg 5%
    16:00 +52°C° 0 mm 3 m/s 740 mmHg 6%
    17:00 +51°C° 0 mm 3 m/s 740 mmHg 6%
    18:00 +48°C° 0 mm 3 m/s 740 mmHg 7%
    19:00 +46°C° 0 mm 3 m/s 740 mmHg 8%
    20:00 +44°C° 0 mm 3 m/s 740 mmHg 9%
    21:00 +43°C° 0 mm 3 m/s 741 mmHg 10%
    22:00 +40°C° 0 mm 2 m/s 741 mmHg 11%
    23:00 +39°C° 0 mm 2 m/s 740 mmHg 12%

    30 August, Vineri

    Timp Temperatura Precipitaţii Vânt Presiune Umiditate
    00:00 +37°C° 0 mm 1 m/s 740 mmHg 13%
    01:00 +36°C° 0 mm 1 m/s 740 mmHg 13%
    02:00 +36°C° 0 mm 1 m/s 740 mmHg 14%
    03:00 +36°C° 0 mm 2 m/s 740 mmHg 14%
    04:00 +36°C° 0 mm 2 m/s 740 mmHg 14%
    05:00 +36°C° 0 mm 2 m/s 740 mmHg 14%
    06:00 +36°C° 0 mm 2 m/s 740 mmHg 14%
    07:00 +39°C° 0 mm 2 m/s 741 mmHg 12%
    08:00 +43°C° 0 mm 2 m/s 741 mmHg 10%
    09:00 +48°C° 0 mm 2 m/s 741 mmHg 8%
    10:00 +49°C° 0 mm 2 m/s 741 mmHg 7%
    11:00 +51°C° 0 mm 2 m/s 741 mmHg 6%
    12:00 +52°C° 0 mm 2 m/s 741 mmHg 5%
    13:00 +54°C° 0 mm 3 m/s 740 mmHg 5%
    14:00 +54°C° 0 mm 3 m/s 740 mmHg 5%
    15:00 +55°C° 0 mm 3 m/s 739 mmHg 4%
    16:00 +53°C° 0 mm 3 m/s 739 mmHg 5%
    17:00 +51°C° 0 mm 4 m/s 739 mmHg 5%
    18:00 +50°C° 0 mm 4 m/s 739 mmHg 6%
    19:00 +48°C° 0 mm 4 m/s 739 mmHg 7%
    20:00 +45°C° 0 mm 4 m/s 740 mmHg 9%
    21:00 +43°C° 0 mm 4 m/s 740 mmHg 10%
    22:00 +42°C° 0 mm 3 m/s 740 mmHg 11%
    23:00 +40°C° 0 mm 3 m/s 740 mmHg 12%
    Arată mai mult